STARLINK-33666, 63592

Orbit data source: Space-Track

STARLINK-33666, 63592 is a payload satellite owned by SpaceX/Seattle (US) in LEO that was launched on Mon, 14 Apr 2025 UTC via an FALCON 9 launch vehicle from the Air Force Eastern Test Range (AFETR). Payload-class satellites include a variety of spacecraft equipped with specific instruments for various scientific and technological missions. These include communications satellites like Starlink; space stations such as the ISS; scientific satellites like the Hubble; Earth observation satellites from companies like Planet Labs, Umbra, and HawkEye 360; GPS; miniature CubeSats for education and research; and military/defense satellites.

Loading next visibility...
Identifier
63592, 2025-076Z
Orbit
LEO
Country
Flag of USUS
Related business
Manufacturer
SpaceX/Seattle
Mission
Operational Commercial Communications
Bus & Motor
STARLINK V2MO, Unknown motor
Mass
575 kg wet, ~530 kg dry
Launch date (UTC)
2025-04-14 (1 year ago)
Launch vehicle
FALCON 9
Launch site
Air Force Eastern Test Range (AFETR)
Object type
Payload
Rocket body
Debris
Shape & HBR
Box + 2 Pan, 17.7 m
Radar Cross Section
36.964 m², Large (>1 m²)

Expand to show TLE details & history
Last TLE update: 6 hours ago

TLE from 6 hours ago
0 STARLINK-33666
1 63592U 25076Z   26133.19441696  .00016143  00000-0  59451-3 0  9992
2 63592  43.0018 317.5697 0002340 274.2217  85.8367 15.27598533 61692
Epoch: 2026-05-13T04:39Z
TLE epoch observation values (Epoch: 2026-05-13T04:39:57.625Z)
Latitude
-0.00003°
Longitude
16.62163°
Altitude
482.653 km
Speed
7.626 km/s
True Right ascension
21h 10m 16s
True Declination
0° 00' 00"
Sunlit
Object was in daylight at epoch
Visualization orbit readout
Latitude
Unknown
Longitude
Unknown
Altitude
Unknown
Speed
Unknown
Apparent Right ascension
Unknown
Apparent Declination
Unknown
Sunlit
N/A
Visualization observer readout
Local Sidereal Time
18:35:32
Azimuth
Unknown
Elevation
Unknown
Doppler factor
Unknown
Orbital elements
Apogee altitude
486.544 km
Perigee altitude
483.333 km
Semi-major axis
6,863.075 km
Eccentricity
0.00023
Inclination
43.0018°
RAAN
317.5697°
Arg. of periapsis
274.2217°
True anomaly
85.86344°
Mean anomaly
85.8367°
Eccentric anomaly
85.85007°
Mean motion
3.81738 °/min
Orbital period
94.31 mins
BSTAR
0.00059451
Loading maneuver chart data...
Computing Atmospheric mass density...
Loading historical data...
Loading historical data...
Loading historical data...
Loading historical data...
Loading historical data...
Loading historical data...
Loading historical data...

Documentation

Showing up to 5 results
|